TimeEDT,TemperatureF,Dew PointF,Humidity,Sea Level PressureIn,VisibilityMPH,Wind Direction,Wind SpeedMPH,Gust SpeedMPH,PrecipitationIn,Events,Conditions,WindDirDegrees,DateUTC
12:53 AM,73.0,69.1,87,30.07,10.0,Calm,Calm,-,N/A,,Overcast,0,2012-09-17 04:53:00
1:53 AM,72.0,69.1,91,30.07,10.0,Calm,Calm,-,N/A,,Overcast,0,2012-09-17 05:53:00
2:53 AM,72.0,69.1,91,30.06,10.0,Calm,Calm,-,N/A,,Mostly Cloudy,0,2012-09-17 06:53:00
3:53 AM,72.0,69.1,91,30.05,10.0,Calm,Calm,-,N/A,,Mostly Cloudy,0,2012-09-17 07:53:00
4:53 AM,70.0,68.0,93,30.04,7.0,Calm,Calm,-,N/A,,Partly Cloudy,0,2012-09-17 08:53:00
5:40 AM,69.8,68.0,94,30.05,0.8,Calm,Calm,-,N/A,,Mist,0,2012-09-17 09:40:00
5:51 AM,69.8,66.2,88,30.05,1.5,Calm,Calm,-,N/A,,Partly Cloudy,0,2012-09-17 09:51:00
5:53 AM,68.0,66.9,96,30.04,4.0,Calm,Calm,-,N/A,,Partly Cloudy,0,2012-09-17 09:53:00
6:53 AM,69.1,66.9,93,30.05,7.0,Calm,Calm,-,N/A,,Clear,0,2012-09-17 10:53:00
7:53 AM,70.0,68.0,93,30.06,7.0,Calm,Calm,-,N/A,,Clear,0,2012-09-17 11:53:00
8:00 AM,69.8,68.0,94,30.07,6.0,Calm,Calm,-,N/A,,Scattered Clouds,0,2012-09-17 12:00:00
8:53 AM,73.0,70.0,90,30.07,10.0,Calm,Calm,-,N/A,,Mostly Cloudy,0,2012-09-17 12:53:00
9:53 AM,78.1,71.1,79,30.07,10.0,SE,4.6,-,N/A,,Partly Cloudy,130,2012-09-17 13:53:00
10:53 AM,82.0,69.1,65,30.06,10.0,SSW,5.8,-,N/A,,Scattered Clouds,200,2012-09-17 14:53:00
11:53 AM,82.9,66.9,58,30.05,10.0,Variable,4.6,-,N/A,,Clear,0,2012-09-17 15:53:00
12:53 PM,82.9,66.0,56,30.03,10.0,SE,4.6,-,N/A,,Scattered Clouds,130,2012-09-17 16:53:00
1:53 PM,84.9,64.9,51,30.00,10.0,SSE,4.6,-,N/A,,Scattered Clouds,150,2012-09-17 17:53:00
2:53 PM,86.0,64.9,49,29.97,10.0,SSW,9.2,-,N/A,,Partly Cloudy,200,2012-09-17 18:53:00
3:53 PM,86.0,66.9,53,29.95,10.0,SSE,9.2,-,N/A,,Mostly Cloudy,150,2012-09-17 19:53:00
4:53 PM,84.9,66.0,53,29.93,10.0,SSE,10.4,-,N/A,,Mostly Cloudy,160,2012-09-17 20:53:00
5:53 PM,82.9,68.0,60,29.94,10.0,SSE,5.8,-,N/A,,Mostly Cloudy,150,2012-09-17 21:53:00
6:53 PM,80.1,70.0,71,29.93,10.0,SSE,8.1,-,0.00,,Clear,150,2012-09-17 22:53:00
7:53 PM,77.0,69.1,76,29.93,10.0,SE,6.9,-,N/A,,Clear,130,2012-09-17 23:53:00
8:53 PM,75.9,69.1,79,29.94,10.0,SSE,8.1,-,N/A,,Clear,150,2012-09-18 00:53:00
9:53 PM,75.0,69.1,82,29.94,10.0,SSE,9.2,-,N/A,,Partly Cloudy,150,2012-09-18 01:53:00
10:53 PM,73.9,69.1,85,29.94,10.0,SSE,9.2,-,N/A,,Clear,150,2012-09-18 02:53:00
11:53 PM,73.9,69.1,85,29.93,10.0,SSE,5.8,-,N/A,,Clear,150,2012-09-18 03:53:00